Location: Grennan Mobile Village
(41.6094°N, 81.1822°W)
Time: 04:45:13
(UTC+00:00)

Daily predictions for brighter satellites

Satellite Brightness Start Highest point End
(mag) Time Altitude Azimuth Time Altitude Azimuth Time Altitude Azimuth
Cosmos 1110 Rocket 4.0 00:23:27 10° SSW 00:28:36 88° ESE 00:33:49 10° NNE
SJ-6B 3.0 00:25:39 10° SSE 00:29:29 53° ENE 00:33:22 10° N
OAO 3 Rocket 4.0 00:26:25 10° WSW 00:30:54 37° S 00:35:24 10° ESE
NOSS 2-2 (D) 2.7 00:29:52 10° SSW 00:33:17 80° SE 00:36:24 10° NE
Cosmos 1408 4.2 00:30:35 10° NNW 00:33:25 32° W 00:36:11 10° SSW
DELTA 2 R/B (1) 4.1 00:28:20 10° W 00:33:46 54° SSW 00:39:13 10° ESE
Cosmos 1378 Rocket 3.7 00:31:47 10° N 00:36:06 79° W 00:40:22 10° S
NOSS 2-3 (E) 3.4 00:33:09 10° SW 00:36:47 74° NW 00:40:43 10° NNE
PAYLOAD B 4.3 00:31:23 10° SSE 00:36:51 65° ENE 00:42:21 10° N
Cosmos 2221 Rocket 3.7 00:33:31 10° N 00:38:05 87° E 00:42:38 10° S
Nadezhda 1 Rocket 4.3 00:32:21 10° SSW 00:38:23 71° W 00:44:28 10° N
Cosmos 1782 Rocket 4.3 00:35:08 10° SSE 00:38:56 30° E 00:42:48 10° NNE
Landsat 7 4.4 00:36:00 10° S 00:40:40 63° W 00:45:21 10° NNW
Cosmos 1892 2.7 00:38:23 10° N 00:41:54 52° E 00:45:22 10° SSE
Cosmos 1741 Rocket 4.0 00:36:39 10° NNW 00:41:55 87° ENE 00:47:10 10° SSE
ATLAS 5 CENTAUR R/B 2.7 00:41:24 10° SE 00:42:47 12° ESE 00:44:10 10° E
Cosmos 1242 Rocket 3.9 00:40:18 10° NNW 00:43:02 33° W 00:45:46 10° SSW
Cosmos 1461 4.3 00:39:45 10° SW 00:43:43 42° NW 00:47:35 10° NNE
Cosmos 1908 Rocket 3.5 00:41:17 10° S 00:45:34 73° E 00:49:53 10° NNE
Cosmos 968 Rocket 3.5 00:40:46 10° NNW 00:45:51 63° ENE 00:50:55 10° SSE
USA 186 2.2 00:44:09 10° SE 00:47:03 38° ENE 00:49:54 10° N
SL-4 R/B 3.5 00:45:07 10° W 00:48:31 31° NNW 00:51:44 10° NE
CZ-4 R/B 1.3 00:45:18 10° SSE 00:49:16 82° ENE 00:53:11 10° N
Feng Yun 1-1 Rocket 4.4 00:47:27 10° SSE 00:52:46 55° ENE 00:58:15 10° N
USA 129 3.0 00:52:24 10° NE 00:54:27 20° E 00:54:47 20° ESE
Cosmos 1455 2.1 00:51:10 10° S 00:54:38 52° E 00:58:06 10° NNE
Meteor 1-16 Rocket 4.3 00:49:58 10° S 00:55:40 83° W 01:01:12 10° N
USA 267 4.5 00:52:41 10° NE 00:58:44 42° NNW 01:04:47 10° W
CSL-04 Debris 4.3 00:53:55 10° SSE 00:59:12 57° ENE 01:04:33 10° N
Timation 1 Rocket 4.3 00:56:27 10° NNW 01:02:27 78° ENE 01:08:24 10° SSE
CZ-4B R/B 4.2 00:59:30 10° SSW 01:03:03 37° W 01:06:28 10° NNW
Cosmos 1953 2.3 00:59:32 10° S 01:03:19 79° W 01:07:10 10° N
Cosmos 1300 Rocket 3.8 01:01:15 10° SSE 01:05:24 47° E 01:09:37 10° NNE
CSL-04 Rocket 3.7 01:04:15 10° SSE 01:09:42 65° ENE 01:15:09 10° N
Cosmos 2181 Rocket 3.9 01:05:08 10° S 01:11:13 68° E 01:17:25 10° NNE
MOS 1-B 4.3 01:08:09 10° SSE 01:13:56 82° ENE 01:19:47 10° NNW
SJ 16-02 1.3 01:09:50 10° NNW 01:14:08 61° ENE 01:17:18 17° SSE
DELTA 2 DEB (DPAF) 4.0 01:09:58 10° NNE 01:14:13 89° ESE 01:18:26 10° SSW
NOSS 3-1 (A) 4.0 01:11:56 10° SSE 01:15:40 23° ESE 01:19:48 10° ENE
Cosmos 2369 Rocket 2.7 01:11:31 10° SW 01:17:09 64° WNW 01:22:48 10° NNE
SL-8 Rocket 4.0 01:11:46 10° N 01:18:00 87° W 01:24:09 10° S
CZ-4C R/B 3.5 01:17:15 10° NNE 01:20:26 34° E 01:21:31 27° SE
Cosmos 1992 Rocket 4.1 01:16:22 10° S 01:21:23 53° ESE 01:26:27 10° NNE
SPOT 1/Viking Rocket 4.2 01:19:40 10° S 01:24:46 57° W 01:29:56 10° NNW
Cosmos 2263 4.4 01:20:23 10° SSW 01:26:00 74° WNW 01:31:38 10° NNE
Cosmos 2098 Rocket 3.4 01:20:49 10° S 01:26:14 60° E 01:30:42 10° NNE
Cosmos 2341 Rocket 4.4 01:22:56 10° NNW 01:29:11 66° W 01:35:20 10° S
Cosmos 1825 3.4 01:26:46 10° NNW 01:30:01 38° W 01:33:13 10° SSW
CZ-4B R/B 3.7 01:24:32 10° S 01:30:08 61° WSW 01:35:42 10° NNW
Okean-O 2.9 01:28:34 26° SE 01:30:42 48° ENE 01:34:57 10° N
PSLV R/B 3.8 01:28:19 14° S 01:31:20 71° W 01:35:03 10° NNW
Terra 3.5 01:30:44 17° ENE 01:31:28 17° ENE 01:34:29 10° NNE
USA 234 3.6 01:28:22 16° SSE 01:33:38 61° SW 01:40:06 10° NW
Cosmos 1833 4.1 01:28:56 10° NNW 01:34:36 73° ENE 01:37:59 25° SE
NOSS 3-1 (C) 2.8 01:33:58 10° SSW 01:38:43 84° ESE 01:44:22 10° NE
Hubble Space Telescope 3.0 01:40:30 10° SSW 01:41:39 12° S 01:41:39 12° S
Ariane Rocket 4.2 01:47:05 23° ENE 01:47:44 24° ENE 01:51:44 10° NNE
Okean O Rocket 2.5 01:49:28 13° S 01:53:11 46° W 01:57:23 10° NNW
Nadezhda 3 Rocket 3.9 01:49:58 15° S 01:55:05 68° E 02:01:12 10° NNE
Cosmos 2239 Rocket 4.5 01:49:29 10° N 01:55:43 63° E 01:58:31 33° SSE
Cosmos 1486 Rocket 4.3 01:53:24 10° N 01:58:28 49° ENE 01:59:33 42° ESE
Resurs 01 Rocket 2.8 01:55:01 11° SSW 01:58:54 39° W 02:03:04 10° NNW
ATLAS 3B R/B 2.7 01:53:19 10° SSW 02:00:10 67° ESE 02:07:35 10° NE
Cosmos 1975 Rocket 3.8 01:58:26 10° NNW 02:02:39 50° W 02:05:11 22° SSW
USA 281 3.4 01:59:34 22° SSE 02:03:58 70° WSW 02:10:33 10° NNW
Cosmos 1821 Rocket 4.0 01:58:15 10° N 02:04:27 78° W 02:08:32 22° S
Iridium 4 Rocket 3.9 02:09:52 44° E 02:10:09 44° E 02:15:28 10° NNE
SL-27 R/B 3.6 02:08:37 10° NNW 02:10:18 31° NNW 02:10:18 31° NNW
OAO 3 Rocket 4.2 02:09:22 10° WSW 02:13:29 33° SSW 02:13:29 33° SSW
SPOT 5 3.1 02:24:44 52° S 02:26:05 79° WSW 02:31:26 10° NNW
ATLAS 5 CENTAUR R/B 2.3 02:23:01 10° WSW 02:26:10 38° NW 02:29:36 10° NNE
SL-4 R/B 4.2 02:25:49 10° NW 02:28:07 16° N 02:29:13 14° NNE
Cosmos 1536 Rocket 3.7 02:24:08 10° N 02:28:03 67° NNE 02:28:03 67° NNE
Cosmos 2151 Rocket 3.5 02:28:54 81° WNW 02:28:54 81° WNW 02:33:16 10° N
Cosmos 2227 Rocket 4.0 02:26:59 10° N 02:30:37 17° NE 02:31:09 17° NE
ERS-1 Rocket 2.8 02:36:16 84° E 02:36:19 84° ENE 02:41:22 10° NNW
Cosmos 1339 Rocket 4.4 02:38:58 48° S 02:40:49 86° W 02:46:58 10° N
CZ-4C R/B 4.3 02:42:39 10° NNW 02:48:31 27° NE 02:51:18 23° ENE
Cosmos 1934 Rocket 3.9 02:44:20 10° N 02:50:30 80° W 02:51:27 65° SSW
Cosmos 1777 Rocket 4.2 02:46:15 10° NNW 02:50:58 65° NNE 02:50:58 65° NNE
SJ 16-02 4.1 02:50:36 10° WNW 02:51:54 11° W 02:53:11 10° WSW
Okean 2 Rocket 3.9 02:52:04 48° W 02:52:10 48° WNW 02:56:33 10° N
Alouette 2 Rocket 4.3 02:44:23 10° NNW 02:52:20 89° WSW 02:52:47 78° S
Cosmos 371 Rocket 3.8 02:54:40 10° NNW 02:58:28 56° NNW 02:58:28 56° NNW
Cosmos 2297 Rocket 2.8 02:54:49 10° NNW 02:59:36 45° NE 02:59:36 45° NE
COSMOS 2455 3.8 02:55:29 10° NNW 03:00:56 35° NE 03:00:56 35° NE
Cosmos 1354 Rocket 4.3 02:56:44 10° NNW 03:01:18 66° N 03:01:18 66° N
Cosmos 1503 Rocket 4.2 02:56:54 10° NNW 03:01:49 69° WNW 03:01:49 69° WNW
NOSS 3-1 (A) 3.9 03:01:11 10° WSW 03:05:55 47° NW 03:11:33 10° NNE
Spot 2 Rocket 3.9 03:07:30 59° WNW 03:07:30 59° WNW 03:11:55 10° NNW
Terra 2.7 03:09:27 47° WNW 03:09:27 47° WNW 03:13:15 10° NNW
USA 229 DEB 4.3 03:16:02 39° NE 03:16:02 39° NE 03:20:09 10° NE
USA 229 4.3 03:16:14 39° NE 03:16:14 39° NE 03:20:18 10° NE
CENTAUR R/B 4.4 03:18:02 10° NNW 03:25:02 31° NE 03:28:19 24° ENE
Ariane Rocket 4.1 03:27:13 38° WNW 03:27:13 38° WNW 03:31:11 10° NNW
Cosmos 1656 4.3 03:29:29 52° NNW 03:29:29 52° NNW 03:34:04 10° NNE
Cosmos 2263 Rocket 4.1 03:30:44 10° N 03:34:00 19° NE 03:34:00 19° NE
ATLAS 3B R/B 4.4 03:45:10 10° W 03:51:31 33° NW 03:58:14 10° NNE
Cosmos 2227 Rocket 3.5 04:09:41 10° NNW 04:12:58 36° NNW 04:12:58 36° NNW
Cosmos 1980 Rocket 4.2 04:21:02 20° NNE 04:21:02 20° NNE 04:22:42 10° NNE
Cosmos 1697 Rocket 4.3 04:30:32 32° N 04:30:32 32° N 04:33:43 10° NNE
CZ-4C R/B 3.3 04:30:24 10° NW 04:36:24 64° NNW 04:36:24 64° NNW
Cosmos 2297 Rocket 4.4 04:39:29 10° NW 04:41:24 18° WNW 04:41:24 18° WNW
CENTAUR R/B 3.4 05:08:18 10° NW 05:15:26 69° NNW 05:15:26 69° NNW
Cosmos 2263 Rocket 4.2 05:13:39 10° NNW 05:15:40 23° NNW 05:15:40 23° NNW
USA 215 4.5 05:24:45 10° NE 05:28:03 32° NE 05:28:03 32° NE
SL-16 R/B 4.1 05:40:46 25° NNE 05:40:46 25° NNE 05:43:00 10° NNE
NOSS 3-2 (C) 4.4 05:41:43 10° NNW 05:48:48 60° NE 05:48:48 60° NE
Cosmos 1980 Rocket 4.3 06:02:45 19° NW 06:02:45 19° NW 06:05:45 10° N
USA 267 3.9 06:04:36 50° NNE 06:04:36 50° NNE 06:10:36 10° NW
Cosmos 1844 Rocket 4.5 06:00:22 10° NNW 06:02:56 27° N 06:02:56 27° N
CZ-2C R/B 4.5 06:35:48 24° ENE 06:36:07 24° ENE 06:40:23 10° NNE
Lacrosse 5 3.8 06:42:19 26° NE 06:42:19 26° NE 06:44:32 10° NE
USA 238 DEB 4.0 06:41:12 10° NNW 06:48:03 73° N 06:48:03 73° N
USA 238 4.0 06:41:18 10° NNW 06:48:16 74° NNE 06:48:16 74° NNE
Resurs 1-4 Rocket 3.6 06:45:47 10° NNE 06:49:06 31° ENE 06:49:06 31° ENE
Cosmos 2333 Rocket 3.3 06:52:51 40° N 06:52:51 40° N 06:56:26 10° NNE
Cosmos 2360 Rocket 3.4 06:56:51 38° N 06:56:51 38° N 07:00:26 10° NNE
Cosmos 2322 Rocket 3.6 07:06:40 31° NNW 07:06:40 31° NNW 07:10:16 10° N
IDEFIX/ARIANE 42P 3.6 07:05:20 10° NNE 07:08:47 42° NNE 07:08:47 42° NNE
Cosmos 2219 Rocket 2.9 07:14:08 48° NNE 07:14:08 48° NNE 07:18:09 10° NNE
USA 215 4.2 07:08:03 10° NE 07:13:58 38° NNW 07:15:22 34° NW
SL-16 R/B 4.1 07:22:36 19° NW 07:22:36 19° NW 07:26:05 10° N
MSX 4.1 07:18:24 10° NNE 07:23:18 65° NNE 07:23:18 65° NNE
NOSS 3-4 (A) 3.9 07:26:04 48° NNW 07:26:04 48° NNW 07:30:58 10° NNE
NOSS 3-4 (C) 3.9 07:26:07 48° NNW 07:26:07 48° NNW 07:31:02 10° NNE
ADEOS II 2.5 07:32:10 10° NNE 07:36:45 59° ENE 07:36:45 59° ENE
FENGYUN 3A 3.9 07:36:36 10° NNE 07:41:48 62° E 07:41:48 62° E
Meteor 2-6 Rocket 4.4 07:45:26 70° NW 07:45:26 70° NW 07:50:53 10° N
Meteor 1-14 Rocket 4.5 07:41:47 10° NNW 07:46:15 59° NNW 07:46:15 59° NNW
CZ-2D R/B 2.5 07:45:03 10° N 07:49:32 56° NNW 07:49:32 56° NNW
SL-16 R/B 2.6 07:51:52 45° SE 07:53:52 74° ENE 08:00:05 10° N
Cosmos 2180 Rocket 4.4 07:47:40 10° N 07:54:03 76° W 07:54:09 76° WSW
Cosmos 1805 Rocket 4.4 07:58:27 10° N 08:02:38 45° ENE 08:02:57 44° E
UNK 4.4 08:02:06 46° ESE 08:02:55 52° ENE 08:07:22 10° N
Cosmos 1500 Rocket 4.1 07:58:51 10° N 08:03:03 57° ENE 08:03:03 57° ENE
Meteor 1-27 Rocket 4.1 08:04:14 46° SSE 08:05:43 61° E 08:11:21 10° NNE
IRAS Rocket 4.1 08:01:19 10° NNE 08:06:58 80° WNW 08:07:17 77° WSW
Cosmos 1943 Rocket 3.9 08:02:21 10° N 08:07:23 31° NE 08:12:24 10° ESE
COSMOS 2428 2.8 08:10:38 59° WNW 08:10:46 59° WNW 08:16:25 10° NNE
Meteor 1-10 Rocket 4.2 08:13:29 67° WSW 08:14:05 73° W 08:20:03 10° N
Cosmos 1733 4.4 08:12:17 10° N 08:15:39 37° ENE 08:15:45 37° E
CZ-2C R/B 3.3 08:17:16 40° WNW 08:17:16 40° WNW 08:21:17 10° NNW
AQUA 4.0 08:11:42 10° N 08:15:55 59° NW 08:15:55 59° NW
Cosmos 2237 Rocket 2.4 08:16:42 49° SSE 08:18:03 64° ESE 08:23:40 10° NNE
BlueWalker 3 4.0 08:15:54 16° NNW 08:18:08 26° NNE 08:21:24 10° E
Cosmos 1980 3.8 08:18:03 53° S 08:19:18 70° ESE 08:24:57 10° NNE
Cosmos 1867 3.4 08:16:43 10° NNW 08:22:13 86° WSW 08:27:41 10° SSE
Meteor 1-11 Rocket 3.5 08:16:52 10° NNW 08:22:27 81° W 08:23:44 54° S
Lacrosse 5 3.7 08:21:30 19° NW 08:23:07 22° NNW 08:27:05 10° NNE
CZ-2C R/B 3.3 08:18:27 10° N 08:23:26 53° WNW 08:23:30 53° WNW
ALOS 2.1 08:19:09 10° NNE 08:23:48 84° WNW 08:23:56 82° WSW
ATLAS 2AS CENTAUR R/B 4.0 08:19:51 18° SSE 08:24:36 35° ESE 08:31:03 10° NE
Cosmos 2322 4.5 08:26:12 36° WNW 08:26:40 36° WNW 08:31:56 10° N
Sich 1 2.8 08:23:51 10° N 08:28:05 87° ENE 08:28:05 87° ENE
Cosmos 1340 Rocket 4.1 08:28:57 28° SE 08:30:06 35° E 08:33:38 10° NNE
Resurs 1-4 Rocket 3.3 08:25:57 10° N 08:30:10 27° WNW 08:30:10 27° WNW
Meteor 2-9 Rocket 4.0 08:27:32 10° N 08:32:56 89° W 08:35:52 29° S
Cosmos 1536 4.3 08:30:21 10° NNW 08:32:13 25° NNW 08:32:13 25° NNW
Cosmos 2344 4.2 08:26:44 10° NW 08:35:32 90° NE 08:47:57 10° SSE
Cosmos 2333 Rocket 4.3 08:34:50 12° WNW 08:36:03 13° NW 08:38:40 10° NNW
Cosmos 1743 Rocket 3.3 08:33:04 10° N 08:37:23 77° W 08:37:38 74° SW
Cosmos 2195 Rocket 4.4 08:36:50 40° SSW 08:39:16 73° W 08:45:32 10° N
Cosmos 2360 Rocket 4.4 08:39:02 10° NW 08:40:07 10° NW 08:41:13 10° NNW
Nadezhda 4 Rocket 4.4 08:44:00 37° W 08:45:04 40° WNW 08:50:49 10° N
NOSS 2-2 (C) 4.3 08:43:07 10° NNW 08:47:44 71° NE 08:54:19 10° SE
IDEFIX/ARIANE 42P 4.4 08:46:33 10° NNW 08:49:25 15° WNW 08:49:33 15° WNW
Okean 1 4.3 08:50:16 30° NW 08:50:16 30° NW 08:52:56 10° N
GP-B 3.7 08:46:00 10° NNW 08:49:53 39° WNW 08:49:53 39° WNW
NOSS 0 Rocket 4.2 08:48:14 38° WSW 08:50:15 53° WNW 08:56:17 10° NNE
Cosmos 1680 Rocket 3.5 08:47:52 33° S 08:50:18 80° ESE 08:55:38 10° NNE
Cosmos 192 4.2 08:46:01 10° NNW 08:50:52 66° WSW 08:54:23 19° S
Cosmos 2278 Rocket 2.1 08:46:32 10° NNW 08:52:11 69° WSW 08:57:48 10° SSE
Cosmos 2219 Rocket 4.1 08:55:50 13° WNW 08:57:22 14° NW 09:00:18 10° NNW
Cosmos 1420 Rocket 4.4 08:55:04 10° NNW 09:00:18 65° ENE 09:05:32 10° SSE
BREEZE-M DEB (TANK) 4.4 09:00:45 34° WSW 09:03:01 89° SSE 09:18:32 10° ENE
Meteor 2-10 4.3 08:57:39 10° NNW 09:03:08 55° W 09:07:23 17° SSW
Cosmos 1461 2.5 08:59:56 10° NW 09:03:44 64° WSW 09:07:29 10° SSE
Cosmos 2056 Rocket 4.1 08:58:51 10° NNW 09:04:11 60° ENE 09:09:32 10° SSE
RESURS DK-1 3.7 09:04:22 24° WNW 09:04:43 24° NW 09:08:04 10° N
Gbstr 26 Del rocket 4.5 09:02:52 18° WNW 09:04:47 25° NNW 09:08:00 10° NE
METEOR-M 4.1 09:03:10 10° N 09:08:28 70° WNW 09:11:50 23° SSW
SL-16 R/B 3.0 09:03:20 11° S 09:08:39 49° ESE 09:14:05 10° NE
Cosmos 1151 Rocket 3.5 09:07:55 37° WSW 09:08:47 41° WNW 09:12:53 10° N
Cosmos 1553 Rocket 4.1 09:04:12 10° N 09:10:31 81° E 09:16:41 10° S
CZ-2C R/B 2.5 09:05:21 10° NNE 09:10:33 87° WNW 09:14:38 17° SSW
PAYLOAD A 3.8 09:09:07 10° NNE 09:14:04 87° ESE 09:18:06 15° SSW
USA 308 3.9 09:12:46 20° S 09:14:39 33° SE 09:18:10 10° ENE
ADEOS II 3.7 09:13:09 10° NNW 09:16:28 17° WNW 09:17:38 16° WNW
Cosmos 1624 Rocket 4.2 09:11:21 10° NNW 09:16:36 75° ENE 09:21:46 10° SSE
Cosmos 1340 2.3 09:16:05 10° N 09:19:31 87° ENE 09:22:56 10° S
Cosmos 921 Rocket 2.9 09:16:43 21° SSW 09:19:31 90° WNW 09:23:51 10° NNE
Cosmos 1626 2.0 09:18:47 16° S 09:21:16 70° E 09:24:34 10° NNE
Cosmos 1975 2.6 09:18:43 10° NNW 09:22:32 67° W 09:26:22 10° S
Intercosmos 25 Rocket 3.4 09:20:40 10° NNW 09:24:11 68° W 09:29:19 10° S
Cosmos 1515 Rocket 4.4 09:19:58 10° S 09:24:17 52° E 09:28:36 10° NNE
ATLAS 5 CENTAUR R/B 3.5 09:24:48 10° NNW 09:29:33 41° NE 09:35:19 10° ESE
Cosmos 1470 Rocket 3.8 09:26:07 10° N 09:30:31 71° E 09:34:55 10° SSE
Meteor 2-12 Rocket 4.4 09:24:50 10° SSW 09:30:53 78° W 09:36:58 10° N
NOSS 7 (E) 4.4 09:28:06 10° NW 09:31:19 64° SW 09:35:19 10° SSE
Envisat 3.4 09:26:36 10° N 09:31:23 43° WNW 09:34:51 18° SW
Cosmos 1484 Rocket 3.9 09:28:37 10° NNE 09:32:02 40° E 09:35:25 10° S
BREEZE-M DEB (TANK) 2.6 09:34:04 18° WSW 09:37:54 55° NNW 09:40:23 10° NE
SL-16 R/B 3.8 09:36:56 17° WSW 09:38:02 17° W 09:41:58 10° NW
Cosmos 1666 Rocket 4.0 09:39:46 10° NNW 09:43:57 40° W 09:48:04 10° SSW
Meteor 1-18 Rocket 4.4 09:39:38 10° SSW 09:45:06 54° WNW 09:50:42 10° N
Cosmos 1371 Rocket 4.0 09:40:19 10° NNW 09:45:28 58° WSW 09:50:38 10° S
Thor Agena Rocket 4.0 09:44:24 10° N 09:49:07 41° WNW 09:53:49 10° SW
Cosmos 1066 Rocket 4.1 09:44:42 10° SSW 09:50:02 75° W 09:55:31 10° N
YAOGAN 6 3.6 09:48:26 10° NNW 09:51:09 24° WNW 09:53:02 15° WSW
Cosmos 1943 Rocket 2.6 09:45:57 10° NW 09:51:11 39° WSW 09:56:23 10° S
H-2A R/B 2.3 09:48:08 10° NNE 09:53:08 71° ESE 09:58:15 10° S
Meteor 2-4 Rocket 4.2 09:48:37 11° SW 09:53:24 37° WNW 09:58:30 10° N
USA 290 2.3 09:52:53 10° NNW 09:55:58 73° ENE 09:59:01 10° SSE
BlueWalker 3 1.9 09:52:50 10° WNW 09:56:37 60° SW 10:00:22 10° SE
Cosmos 1842 3.3 09:53:35 10° S 09:57:17 77° E 10:01:02 10° N
Cosmos 1933 Rocket 3.9 09:53:28 10° N 09:57:51 71° E 10:02:09 10° SSE
Cosmos 2297 4.1 09:56:24 10° NNW 10:02:10 73° ENE 10:07:54 10° SSE
Cosmos 2237 Rocket 3.7 09:58:31 11° W 10:02:35 21° NW 10:06:50 10° N
Lacrosse 5 4.3 10:05:11 10° NNW 10:07:50 14° N 10:10:29 10° NNE
Cosmos 2369 Rocket 2.8 10:05:09 10° NNW 10:10:44 62° ENE 10:16:15 10° SE
ATLAS 2AS CENTAUR R/B 3.2 10:08:03 10° SW 10:15:19 54° NW 10:22:21 10° NNE
Cosmos 1707 2.5 10:14:24 10° S 10:18:03 80° W 10:21:44 10° N
Cosmos 883 Rocket 4.4 10:13:43 10° N 10:19:50 75° W 10:25:55 10° S
S3M 4.2 10:17:15 10° NNW 10:23:10 51° W 10:29:09 10° SSW
BREEZE-M DEB (TANK) 4.1 10:07:35 10° WNW 10:25:17 77° SW 10:29:49 10° SE
